Location: Newark
(42.7133°N, 87.7910°W)
Time: 22:56:04
(UTC+00:00)

Transit 4A - Pass Details

Date: 26 September 2019
Orbit: 867 x 978 km, 66.8° (Epoch: 19 October)

Event Time Altitude Azimuth Distance (km) Brightness Sun altitude
Rises 02:41:58 0° 312° (NW) 3,560 12.0 -32.0°
Reaches altitude 10° 02:45:36 10° 291° (WNW) 2,589 11.0 -32.6°
Maximum altitude 02:48:52 15° 258° (WSW) 2,211 10.3 -33.1°
Drops below altitude 10° 02:52:05 10° 224° (SW) 2,541 10.2 -33.6°
Enters shadow 02:52:06 10° 224° (SW) 2,545 10.2 -33.6°
